星链-5537 (STARLINK-5537 )

导读

STARLINK-5537是美国SpaceX星链星座中的一颗卫星,于北京时间2023年1月26日发射入轨,属于星链项目大规模组网中的一员。它主要为全球范围提供低延迟、高速率的宽带互联网服务,尤其覆盖偏远地区与网络基础设施薄弱区域,依托近地轨道部署保障信号传输效率,推动全球互联覆盖。

基本信息
目录编号:
55384
目录名称:
STARLINK-5537
国际标识:
2023-013BF
轨道中心:
EARTH
卫星名称:
星链-5537
卫星全名:
星链-5537 (STARLINK-5537 )
卫星状态:
在轨 (已飞行1327 天)
发射日期:
2023-01-26 UTC
国别 :
美国 (US)
星等 :
--
该卫星已列入 空间交会检测服务 Space Conjunction Data Service (SCDS) ,当前飞行风险评估等级: 无高风险
轨道信息
数据来源 国际轨道数据
星历时间: 2026-09-14T13:02:14+0800
4小时前
查看轨道信息
半长轴: 6861.202km
偏心率: 0.000181
轨道倾角: 43.006°
近地点辐角 284.455°
升交点赤经 333.560°
平近点角 75.610°
近地点: 481.823km
远地点: 484.307km
周期: 94.267分钟
每日圈数: 15.275748
详细信息
固有亮度:
5
最大亮度:
2.5
卫星平台:
Starlink v1.5
覆盖范围:
全球
运营商:
太空探索技术公司
运营商所在国:
美国
制造商(研发单位):
太空探索技术公司
制造商所在国:
美国
使用方式:
暂无
卫星简介
星链(Starlink)计划是由太空探索技术公司(SpaceX)提出的一个巨型低轨卫星互联网星座项目,计划在2019年至2024年间在太空搭建由约1.2万颗卫星组成的“星链”网络,其中1584颗将部署在地球上空550千米处的近地轨道,并从2020年开始工作。该卫星仍在工作。
2D轨道图
3D轨道图
轨道高度分析图
轨道倾角分析图
轨道综合分析图
查看轨道综合分析图
交会数据列表
事件ID 空间交会对象 最接近时刻(TCA) 交会距离 交会风险概率(CRP) 交会风险指数(CRI) 操作
CDM_260916-003804-283905-538421
2026-09-16T
00:38:49+0000
1.849 km
极远距离
3.199563E-6 低风险 0.45
CDM_260916-022203-182005-538422
2026-09-16T
02:22:06+0000
2.882 km
极远距离
1.371628E-6 低风险 0.38
与全量物体交会距离演化趋势 订阅飞行安全评估服务
与全量物体交会风险概率演化趋势 订阅飞行安全评估服务